date,time,SUV Intensity [MED/Hr],UV Index,Daily total [MED],Since Last [MED]
02/03/2022,00:05:24,0.000,0.0,0.0,0.0
02/03/2022,00:06:24,0.000,0.0,0.0,0.0
02/03/2022,00:07:16,0.000,0.0,0.0,0.0
02/03/2022,00:08:24,0.000,0.0,0.0,0.0
02/03/2022,00:09:14,0.000,0.0,0.0,0.0
02/03/2022,00:10:16,-0.000,0.0,0.0,0.0
02/03/2022,00:11:16,0.000,0.0,0.0,0.0
02/03/2022,00:12:16,0.000,0.0,0.0,0.0
02/03/2022,00:13:15,0.000,0.0,0.0,0.0
02/03/2022,00:14:16,-0.000,0.0,0.0,0.0
02/03/2022,00:15:16,0.000,0.0,0.0,0.0
02/03/2022,00:16:16,0.000,0.0,0.0,0.0
02/03/2022,00:17:16,0.000,0.0,0.0,0.0
02/03/2022,00:18:07,-0.000,0.0,0.0,0.0
02/03/2022,00:19:16,-0.000,0.0,0.0,0.0
02/03/2022,00:20:16,0.000,0.0,0.0,0.0
02/03/2022,00:21:16,0.000,0.0,0.0,0.0
02/03/2022,00:22:07,-0.000,0.0,0.0,0.0
02/03/2022,00:23:16,0.000,0.0,0.0,0.0
02/03/2022,00:24:16,0.000,0.0,0.0,0.0
02/03/2022,00:25:16,-0.000,0.0,0.0,0.0
02/03/2022,00:26:16,0.000,0.0,0.0,0.0
02/03/2022,00:27:16,-0.000,0.0,0.0,0.0
02/03/2022,00:28:16,0.000,0.0,0.0,0.0
02/03/2022,00:29:24,-0.000,0.0,0.0,0.0
02/03/2022,00:30:16,-0.000,0.0,0.0,0.0
02/03/2022,00:31:16,-0.000,0.0,0.0,0.0
02/03/2022,00:32:25,0.000,0.0,0.0,0.0
02/03/2022,00:33:16,0.000,0.0,0.0,0.0
02/03/2022,00:34:16,0.000,0.0,0.0,0.0
02/03/2022,00:35:16,0.000,0.0,0.0,0.0
02/03/2022,00:36:16,-0.000,0.0,0.0,0.0
02/03/2022,00:37:17,0.000,0.0,0.0,0.0
02/03/2022,00:38:16,0.000,0.0,0.0,0.0
02/03/2022,00:39:16,0.000,0.0,0.0,0.0
02/03/2022,00:40:16,0.000,0.0,0.0,0.0
02/03/2022,00:41:16,-0.000,0.0,0.0,0.0
02/03/2022,00:42:19,-0.000,0.0,0.0,0.0
02/03/2022,00:43:24,-0.000,0.0,0.0,0.0
02/03/2022,00:44:16,0.000,0.0,0.0,0.0
02/03/2022,00:45:24,-0.000,0.0,0.0,0.0
02/03/2022,00:46:15,-0.000,0.0,0.0,0.0
02/03/2022,00:47:26,-0.000,0.0,0.0,0.0
02/03/2022,00:48:16,0.001,0.0,0.0,0.0
02/03/2022,00:49:16,0.000,0.0,0.0,0.0
02/03/2022,00:50:16,-0.000,0.0,0.0,0.0
02/03/2022,00:51:16,-0.000,0.0,0.0,0.0
02/03/2022,00:52:16,0.000,0.0,0.0,0.0
02/03/2022,00:53:16,-0.000,0.0,0.0,0.0
02/03/2022,00:54:16,-0.000,0.0,0.0,0.0
02/03/2022,00:55:16,-0.000,0.0,0.0,0.0
02/03/2022,00:56:24,-0.000,0.0,0.0,0.0
02/03/2022,00:57:16,-0.000,0.0,0.0,0.0
02/03/2022,00:58:16,0.000,0.0,0.0,0.0
02/03/2022,00:59:16,-0.000,0.0,0.0,0.0
02/03/2022,01:00:16,0.000,0.0,0.0,0.0
02/03/2022,01:01:16,-0.000,0.0,0.0,0.0
02/03/2022,01:02:16,0.000,0.0,0.0,0.0
02/03/2022,01:03:16,0.000,0.0,0.0,0.0
02/03/2022,01:04:16,-0.000,0.0,0.0,0.0
02/03/2022,01:05:16,0.000,0.0,0.0,0.0
02/03/2022,01:06:24,0.000,0.0,0.0,0.0
02/03/2022,01:07:16,0.000,0.0,0.0,0.0
02/03/2022,01:08:16,-0.000,0.0,0.0,0.0
02/03/2022,01:09:16,0.000,0.0,0.0,0.0
02/03/2022,01:10:16,-0.000,0.0,0.0,0.0
02/03/2022,01:11:16,0.000,0.0,0.0,0.0
02/03/2022,01:12:16,-0.000,0.0,0.0,0.0
02/03/2022,01:13:15,-0.000,0.0,0.0,0.0
02/03/2022,01:14:16,-0.000,0.0,0.0,0.0
02/03/2022,01:15:16,-0.000,0.0,0.0,0.0
02/03/2022,01:16:16,-0.000,0.0,0.0,0.0
02/03/2022,01:17:16,-0.000,0.0,0.0,0.0
02/03/2022,01:18:16,-0.000,0.0,0.0,0.0
02/03/2022,01:19:16,-0.000,0.0,0.0,0.0
02/03/2022,01:20:24,0.000,0.0,0.0,0.0
02/03/2022,01:21:16,-0.000,0.0,0.0,0.0
02/03/2022,01:22:16,-0.000,0.0,0.0,0.0
02/03/2022,01:23:16,-0.000,0.0,0.0,0.0
02/03/2022,01:24:16,-0.000,0.0,0.0,0.0
02/03/2022,01:25:16,-0.000,0.0,0.0,0.0
02/03/2022,01:26:16,0.001,0.0,0.0,0.0
02/03/2022,01:27:16,-0.000,0.0,0.0,0.0
02/03/2022,01:28:16,-0.000,0.0,0.0,0.0
02/03/2022,01:29:16,0.001,0.0,0.0,0.0
02/03/2022,01:30:24,-0.000,0.0,0.0,0.0
02/03/2022,01:31:16,-0.000,0.0,0.0,0.0
02/03/2022,01:32:16,-0.000,0.0,0.0,0.0
02/03/2022,01:33:24,-0.000,0.0,0.0,0.0
02/03/2022,01:34:16,-0.000,0.0,0.0,0.0
02/03/2022,01:35:16,-0.000,0.0,0.0,0.0
02/03/2022,01:36:16,-0.000,0.0,0.0,0.0
02/03/2022,01:37:16,-0.000,0.0,0.0,0.0
02/03/2022,01:38:16,-0.000,0.0,0.0,0.0
02/03/2022,01:39:24,-0.000,0.0,0.0,0.0
02/03/2022,01:40:16,0.000,0.0,0.0,0.0
02/03/2022,01:41:16,-0.000,0.0,0.0,0.0
02/03/2022,01:42:16,-0.000,0.0,0.0,0.0
02/03/2022,01:43:24,-0.000,0.0,0.0,0.0
02/03/2022,01:44:24,-0.000,0.0,0.0,0.0
02/03/2022,01:45:16,-0.000,0.0,0.0,0.0
02/03/2022,01:46:16,0.001,0.0,0.0,0.0
02/03/2022,01:47:16,-0.000,0.0,0.0,0.0
02/03/2022,01:48:16,-0.000,0.0,0.0,0.0
02/03/2022,01:49:16,0.000,0.0,0.0,0.0
02/03/2022,01:50:16,-0.000,0.0,0.0,0.0
02/03/2022,01:51:16,-0.000,0.0,0.0,0.0
02/03/2022,01:52:16,0.000,0.0,0.0,0.0
02/03/2022,01:53:16,-0.000,0.0,0.0,0.0
02/03/2022,01:54:16,0.000,0.0,0.0,0.0
02/03/2022,01:55:24,-0.000,0.0,0.0,0.0
02/03/2022,01:56:16,-0.000,0.0,0.0,0.0
02/03/2022,01:57:24,-0.000,0.0,0.0,0.0
02/03/2022,01:58:17,-0.000,0.0,0.0,0.0
02/03/2022,01:59:16,0.000,0.0,0.0,0.0
02/03/2022,02:00:16,-0.000,0.0,0.0,0.0
02/03/2022,02:01:16,0.001,0.0,0.0,0.0
02/03/2022,02:02:16,-0.000,0.0,0.0,0.0
02/03/2022,02:03:16,-0.000,0.0,0.0,0.0
02/03/2022,02:04:16,-0.000,0.0,0.0,0.0
02/03/2022,02:05:16,0.000,0.0,0.0,0.0
02/03/2022,02:06:16,-0.000,0.0,0.0,0.0
02/03/2022,02:07:24,-0.000,0.0,0.0,0.0
02/03/2022,02:08:16,-0.000,0.0,0.0,0.0
02/03/2022,02:09:17,-0.000,0.0,0.0,0.0
02/03/2022,02:10:16,-0.000,0.0,0.0,0.0
02/03/2022,02:11:16,-0.000,0.0,0.0,0.0
02/03/2022,02:12:16,-0.000,0.0,0.0,0.0
02/03/2022,02:13:16,-0.000,0.0,0.0,0.0
02/03/2022,02:14:16,-0.000,0.0,0.0,0.0
02/03/2022,02:15:16,-0.000,0.0,0.0,0.0
02/03/2022,02:16:16,-0.000,0.0,0.0,0.0
02/03/2022,02:17:24,0.000,0.0,0.0,0.0
02/03/2022,02:18:24,-0.001,0.0,0.0,0.0
02/03/2022,02:19:15,-0.000,0.0,0.0,0.0
02/03/2022,02:20:16,-0.000,0.0,0.0,0.0
02/03/2022,02:21:16,-0.000,0.0,0.0,0.0
02/03/2022,02:22:16,-0.000,0.0,0.0,0.0
02/03/2022,02:23:16,-0.000,0.0,0.0,0.0
02/03/2022,02:24:16,-0.000,0.0,0.0,0.0
02/03/2022,02:25:16,-0.000,0.0,0.0,0.0
02/03/2022,02:26:16,-0.000,0.0,0.0,0.0
02/03/2022,02:27:16,-0.001,0.0,0.0,0.0
02/03/2022,02:28:25,-0.000,0.0,0.0,0.0
02/03/2022,02:29:16,-0.000,0.0,0.0,0.0
02/03/2022,02:30:16,-0.000,0.0,0.0,0.0
02/03/2022,02:31:16,-0.000,0.0,0.0,0.0
02/03/2022,02:32:16,-0.000,0.0,0.0,0.0
02/03/2022,02:33:16,-0.000,0.0,0.0,0.0
02/03/2022,02:34:16,-0.000,0.0,0.0,0.0
02/03/2022,02:35:16,-0.000,0.0,0.0,0.0
02/03/2022,02:36:16,-0.000,0.0,0.0,0.0
02/03/2022,02:37:16,-0.000,0.0,0.0,0.0
02/03/2022,02:38:24,-0.000,0.0,0.0,0.0
02/03/2022,02:39:16,-0.000,0.0,0.0,0.0
02/03/2022,02:40:16,-0.000,0.0,0.0,0.0
02/03/2022,02:41:16,-0.000,0.0,0.0,0.0
02/03/2022,02:42:16,-0.000,0.0,0.0,0.0
02/03/2022,02:43:16,-0.000,0.0,0.0,0.0
02/03/2022,02:44:16,-0.000,0.0,0.0,0.0
02/03/2022,02:45:24,-0.000,0.0,0.0,0.0
02/03/2022,02:46:16,-0.000,0.0,0.0,0.0
02/03/2022,02:47:17,-0.000,0.0,0.0,0.0
02/03/2022,02:48:24,-0.000,0.0,0.0,0.0
02/03/2022,02:49:16,-0.000,0.0,0.0,0.0
02/03/2022,02:50:16,-0.000,0.0,0.0,0.0
02/03/2022,02:51:17,-0.000,0.0,0.0,0.0
02/03/2022,02:52:16,-0.000,0.0,0.0,0.0
02/03/2022,02:53:16,-0.000,0.0,0.0,0.0
02/03/2022,02:54:16,-0.000,0.0,0.0,0.0
02/03/2022,02:55:16,-0.000,0.0,0.0,0.0
02/03/2022,02:56:16,-0.000,0.0,0.0,0.0
02/03/2022,02:57:16,-0.000,0.0,0.0,0.0
02/03/2022,02:58:19,-0.000,0.0,0.0,0.0
02/03/2022,02:59:24,-0.000,0.0,0.0,0.0
02/03/2022,03:00:16,-0.000,0.0,0.0,0.0
02/03/2022,03:01:16,-0.000,0.0,0.0,0.0
02/03/2022,03:02:16,-0.000,0.0,0.0,0.0
02/03/2022,03:03:16,-0.000,0.0,0.0,0.0
02/03/2022,03:04:17,-0.000,0.0,0.0,0.0
02/03/2022,03:05:16,-0.000,0.0,0.0,0.0
02/03/2022,03:06:16,-0.000,0.0,0.0,0.0
02/03/2022,03:07:16,-0.000,0.0,0.0,0.0
02/03/2022,03:08:17,-0.000,0.0,0.0,0.0
02/03/2022,03:09:26,-0.000,0.0,0.0,0.0
02/03/2022,03:10:16,-0.000,0.0,0.0,0.0
02/03/2022,03:11:16,-0.000,0.0,0.0,0.0
02/03/2022,03:12:24,-0.000,0.0,0.0,0.0
02/03/2022,03:13:16,-0.000,0.0,0.0,0.0
02/03/2022,03:14:17,-0.000,0.0,0.0,0.0
02/03/2022,03:15:16,-0.000,0.0,0.0,0.0
02/03/2022,03:16:17,-0.000,0.0,0.0,0.0
02/03/2022,03:17:16,-0.001,0.0,0.0,0.0
02/03/2022,03:18:16,-0.000,0.0,0.0,0.0
02/03/2022,03:19:16,-0.000,0.0,0.0,0.0
02/03/2022,03:20:16,-0.000,0.0,0.0,0.0
02/03/2022,03:21:16,-0.000,0.0,0.0,0.0
02/03/2022,03:22:24,-0.000,0.0,0.0,0.0
02/03/2022,03:23:16,-0.000,0.0,0.0,0.0
02/03/2022,03:24:16,-0.000,0.0,0.0,0.0
02/03/2022,03:25:17,-0.000,0.0,0.0,0.0
02/03/2022,03:26:16,-0.000,0.0,0.0,0.0
02/03/2022,03:27:16,-0.000,0.0,0.0,0.0
02/03/2022,03:28:16,-0.000,0.0,0.0,0.0
02/03/2022,03:29:17,-0.000,0.0,0.0,0.0
02/03/2022,03:30:17,-0.000,0.0,0.0,0.0
02/03/2022,03:31:16,-0.000,0.0,0.0,0.0
02/03/2022,03:32:16,-0.000,0.0,0.0,0.0
02/03/2022,03:33:24,-0.000,0.0,0.0,0.0
02/03/2022,03:34:16,-0.000,0.0,0.0,0.0
02/03/2022,03:36:17,-0.000,0.0,0.0,0.0
02/03/2022,03:37:17,-0.000,0.0,0.0,0.0
02/03/2022,03:38:16,-0.000,0.0,0.0,0.0
02/03/2022,03:39:16,-0.000,0.0,0.0,0.0
02/03/2022,03:40:17,-0.000,0.0,0.0,0.0
02/03/2022,03:41:17,-0.000,0.0,0.0,0.0
02/03/2022,03:42:17,-0.000,0.0,0.0,0.0
02/03/2022,03:43:25,-0.000,0.0,0.0,0.0
02/03/2022,03:44:16,-0.000,0.0,0.0,0.0
02/03/2022,03:45:16,-0.000,0.0,0.0,0.0
02/03/2022,03:46:16,-0.000,0.0,0.0,0.0
02/03/2022,03:47:16,-0.000,0.0,0.0,0.0
02/03/2022,03:48:16,-0.000,0.0,0.0,0.0
02/03/2022,03:49:17,-0.000,0.0,0.0,0.0
02/03/2022,03:50:16,-0.000,0.0,0.0,0.0
02/03/2022,03:51:16,-0.001,0.0,0.0,0.0
02/03/2022,03:52:16,-0.000,0.0,0.0,0.0
02/03/2022,03:53:24,-0.000,0.0,0.0,0.0
02/03/2022,03:54:16,-0.000,0.0,0.0,0.0
02/03/2022,03:55:16,-0.000,0.0,0.0,0.0
02/03/2022,03:56:17,-0.000,0.0,0.0,0.0
02/03/2022,03:57:16,-0.000,0.0,0.0,0.0
02/03/2022,03:58:16,-0.000,0.0,0.0,0.0
02/03/2022,03:59:16,-0.000,0.0,0.0,0.0
02/03/2022,04:00:17,-0.000,0.0,0.0,0.0
02/03/2022,04:01:16,-0.000,0.0,0.0,0.0
02/03/2022,04:02:16,-0.000,0.0,0.0,0.0
02/03/2022,04:03:25,-0.000,0.0,0.0,0.0
02/03/2022,04:04:15,-0.000,0.0,0.0,0.0
02/03/2022,04:05:17,-0.000,0.0,0.0,0.0
02/03/2022,04:06:17,-0.000,0.0,0.0,0.0
02/03/2022,04:07:17,-0.000,0.0,0.0,0.0
02/03/2022,04:08:16,-0.000,0.0,0.0,0.0
02/03/2022,04:09:16,-0.000,0.0,0.0,0.0
02/03/2022,04:10:16,-0.000,0.0,0.0,0.0
02/03/2022,04:11:17,-0.000,0.0,0.0,0.0
02/03/2022,04:12:16,-0.000,0.0,0.0,0.0
02/03/2022,04:13:16,-0.000,0.0,0.0,0.0
02/03/2022,04:14:24,-0.000,0.0,0.0,0.0
02/03/2022,04:15:16,-0.000,0.0,0.0,0.0
02/03/2022,04:16:16,-0.000,0.0,0.0,0.0
02/03/2022,04:17:16,-0.000,0.0,0.0,0.0
02/03/2022,04:18:16,-0.000,0.0,0.0,0.0
02/03/2022,04:19:16,-0.000,0.0,0.0,0.0
02/03/2022,04:20:17,-0.000,0.0,0.0,0.0
02/03/2022,04:21:17,-0.000,0.0,0.0,0.0
02/03/2022,04:22:16,-0.000,0.0,0.0,0.0
02/03/2022,04:23:17,-0.000,0.0,0.0,0.0
02/03/2022,04:24:16,-0.000,0.0,0.0,0.0
02/03/2022,04:25:16,-0.000,0.0,0.0,0.0
02/03/2022,04:26:17,-0.000,0.0,0.0,0.0
02/03/2022,04:27:18,-0.000,0.0,0.0,0.0
02/03/2022,04:28:16,-0.000,0.0,0.0,0.0
02/03/2022,04:29:17,-0.000,0.0,0.0,0.0
02/03/2022,04:30:17,-0.000,0.0,0.0,0.0
02/03/2022,04:31:25,-0.000,0.0,0.0,0.0
02/03/2022,04:32:16,-0.000,0.0,0.0,0.0
02/03/2022,04:33:16,-0.000,0.0,0.0,0.0
02/03/2022,04:34:16,-0.000,0.0,0.0,0.0
02/03/2022,04:35:17,-0.000,0.0,0.0,0.0
02/03/2022,04:36:16,-0.000,0.0,0.0,0.0
02/03/2022,04:37:16,-0.000,0.0,0.0,0.0
02/03/2022,04:38:16,-0.000,0.0,0.0,0.0
02/03/2022,04:39:16,-0.000,0.0,0.0,0.0
02/03/2022,04:40:25,-0.000,0.0,0.0,0.0
02/03/2022,04:41:17,-0.000,0.0,0.0,0.0
02/03/2022,04:42:16,-0.000,0.0,0.0,0.0
02/03/2022,04:43:17,-0.000,0.0,0.0,0.0
02/03/2022,04:44:24,-0.000,0.0,0.0,0.0
02/03/2022,04:45:16,-0.000,0.0,0.0,0.0
02/03/2022,04:46:16,-0.000,0.0,0.0,0.0
02/03/2022,04:47:16,-0.000,0.0,0.0,0.0
02/03/2022,04:48:16,-0.000,0.0,0.0,0.0
02/03/2022,04:49:16,-0.000,0.0,0.0,0.0
02/03/2022,04:50:16,-0.000,0.0,0.0,0.0
02/03/2022,04:51:17,-0.000,0.0,0.0,0.0
02/03/2022,04:52:17,-0.000,0.0,0.0,0.0
02/03/2022,04:53:16,-0.000,0.0,0.0,0.0
02/03/2022,04:54:16,-0.000,0.0,0.0,0.0
02/03/2022,04:55:25,-0.000,0.0,0.0,0.0
02/03/2022,04:56:15,-0.000,0.0,0.0,0.0
02/03/2022,04:57:17,-0.000,0.0,0.0,0.0
02/03/2022,04:58:17,-0.000,0.0,0.0,0.0
02/03/2022,04:59:16,-0.000,0.0,0.0,0.0
02/03/2022,05:00:16,-0.000,0.0,0.0,0.0
02/03/2022,05:01:16,-0.000,0.0,0.0,0.0
02/03/2022,05:02:17,-0.000,0.0,0.0,0.0
02/03/2022,05:03:16,-0.000,0.0,0.0,0.0
02/03/2022,05:04:17,-0.000,0.0,0.0,0.0
02/03/2022,05:05:24,-0.000,0.0,0.0,0.0
02/03/2022,05:06:16,-0.000,0.0,0.0,0.0
02/03/2022,05:07:17,-0.000,0.0,0.0,0.0
02/03/2022,05:08:16,-0.000,0.0,0.0,0.0
02/03/2022,05:09:16,-0.000,0.0,0.0,0.0
02/03/2022,05:10:17,0.000,0.0,0.0,0.0
02/03/2022,05:11:16,-0.000,0.0,0.0,0.0
02/03/2022,05:12:16,-0.000,0.0,0.0,0.0
02/03/2022,05:13:16,-0.000,0.0,0.0,0.0
02/03/2022,05:14:17,-0.000,0.0,0.0,0.0
02/03/2022,05:15:17,-0.000,0.0,0.0,0.0
02/03/2022,05:16:16,-0.000,0.0,0.0,0.0
02/03/2022,05:17:16,-0.000,0.0,0.0,0.0
02/03/2022,05:18:16,-0.000,0.0,0.0,0.0
02/03/2022,05:19:16,-0.000,0.0,0.0,0.0
02/03/2022,05:20:16,-0.000,0.0,0.0,0.0
02/03/2022,05:21:17,-0.000,0.0,0.0,0.0
02/03/2022,05:22:16,-0.000,0.0,0.0,0.0
02/03/2022,05:23:17,-0.000,0.0,0.0,0.0
02/03/2022,05:25:17,-0.000,0.0,0.0,0.0
02/03/2022,05:26:17,-0.000,0.0,0.0,0.0
02/03/2022,05:27:16,-0.000,0.0,0.0,0.0
02/03/2022,05:28:16,-0.000,0.0,0.0,0.0
02/03/2022,05:29:25,-0.000,0.0,0.0,0.0
02/03/2022,05:30:17,-0.001,0.0,0.0,0.0
02/03/2022,05:31:16,-0.000,0.0,0.0,0.0
02/03/2022,05:32:16,-0.000,0.0,0.0,0.0
02/03/2022,05:33:16,-0.000,0.0,0.0,0.0
02/03/2022,05:34:16,-0.000,0.0,0.0,0.0
02/03/2022,05:35:16,-0.000,0.0,0.0,0.0
02/03/2022,05:36:17,-0.000,0.0,0.0,0.0
02/03/2022,05:37:17,-0.000,0.0,0.0,0.0
02/03/2022,05:38:17,-0.000,0.0,0.0,0.0
02/03/2022,05:39:16,-0.000,0.0,0.0,0.0
02/03/2022,05:40:16,0.000,0.0,0.0,0.0
02/03/2022,05:41:17,-0.000,0.0,0.0,0.0
02/03/2022,05:42:17,0.000,0.0,0.0,0.0
02/03/2022,05:43:16,-0.000,0.0,0.0,0.0
02/03/2022,05:44:16,-0.000,0.0,0.0,0.0
02/03/2022,05:45:16,-0.000,0.0,0.0,0.0
02/03/2022,05:46:25,-0.000,0.0,0.0,0.0
02/03/2022,05:47:17,-0.000,0.0,0.0,0.0
02/03/2022,05:48:16,-0.000,0.0,0.0,0.0
02/03/2022,05:49:17,0.000,0.0,0.0,0.0
02/03/2022,05:50:17,-0.000,0.0,0.0,0.0
02/03/2022,05:51:16,-0.000,0.0,0.0,0.0
02/03/2022,05:52:17,-0.000,0.0,0.0,0.0
02/03/2022,05:53:17,0.001,0.0,0.0,0.0
02/03/2022,05:54:17,-0.000,0.0,0.0,0.0
02/03/2022,05:55:16,-0.000,0.0,0.0,0.0
02/03/2022,05:56:16,-0.000,0.0,0.0,0.0
02/03/2022,05:57:17,-0.000,0.0,0.0,0.0
02/03/2022,05:58:16,0.000,0.0,0.0,0.0
02/03/2022,05:59:25,0.000,0.0,0.0,0.0
02/03/2022,06:00:25,-0.000,0.0,0.0,0.0
02/03/2022,06:01:17,-0.000,0.0,0.0,0.0
02/03/2022,06:02:17,0.000,0.0,0.0,0.0
02/03/2022,06:03:17,0.000,0.0,0.0,0.0
02/03/2022,06:04:17,0.000,0.0,0.0,0.0
02/03/2022,06:05:16,0.000,0.0,0.0,0.0
02/03/2022,06:06:17,0.000,0.0,0.0,0.0
02/03/2022,06:07:25,0.000,0.0,0.0,0.0
02/03/2022,06:08:15,0.000,0.0,0.0,0.0
02/03/2022,06:09:18,-0.000,0.0,0.0,0.0
02/03/2022,06:10:17,0.000,0.0,0.0,0.0
02/03/2022,06:11:18,0.000,0.0,0.0,0.0
02/03/2022,06:12:17,0.000,0.0,0.0,0.0
02/03/2022,06:13:17,0.000,0.0,0.0,0.0
02/03/2022,06:14:16,0.000,0.0,0.0,0.0
02/03/2022,06:15:16,-0.000,0.0,0.0,0.0
02/03/2022,06:16:17,0.000,0.0,0.0,0.0
02/03/2022,06:17:25,-0.000,0.0,0.0,0.0
02/03/2022,06:18:17,0.000,0.0,0.0,0.0
02/03/2022,06:19:17,0.000,0.0,0.0,0.0
02/03/2022,06:20:25,0.000,0.0,0.0,0.0
02/03/2022,06:21:16,0.000,0.0,0.0,0.0
02/03/2022,06:22:17,-0.000,0.0,0.0,0.0
02/03/2022,06:23:25,-0.000,0.0,0.0,0.0
02/03/2022,06:24:15,0.000,0.0,0.0,0.0
02/03/2022,06:25:17,0.001,0.0,0.0,0.0
02/03/2022,06:26:17,-0.000,0.0,0.0,0.0
02/03/2022,06:27:16,0.001,0.0,0.0,0.0
02/03/2022,06:28:16,0.000,0.0,0.0,0.0
02/03/2022,06:29:17,0.000,0.0,0.0,0.0
02/03/2022,06:30:17,0.000,0.0,0.0,0.0
02/03/2022,06:31:25,0.000,0.0,0.0,0.0
02/03/2022,06:32:16,0.000,0.0,0.0,0.0
02/03/2022,06:33:16,0.000,0.0,0.0,0.0
02/03/2022,06:34:17,0.000,0.0,0.0,0.0
02/03/2022,06:35:17,0.001,0.0,0.0,0.0
02/03/2022,06:36:16,-0.000,0.0,0.0,0.0
02/03/2022,06:37:16,-0.000,0.0,0.0,0.0
02/03/2022,06:38:16,-0.000,0.0,0.0,0.0
02/03/2022,06:39:17,-0.000,0.0,0.0,0.0
02/03/2022,06:40:17,0.001,0.0,0.0,0.0
02/03/2022,06:41:25,0.000,0.0,0.0,0.0
02/03/2022,06:42:16,0.000,0.0,0.0,0.0
02/03/2022,06:43:16,-0.000,0.0,0.0,0.0
02/03/2022,06:44:24,0.001,0.0,0.0,0.0
02/03/2022,06:45:18,0.000,0.0,0.0,0.0
02/03/2022,06:46:17,0.000,0.0,0.0,0.0
02/03/2022,06:47:16,0.000,0.0,0.0,0.0
02/03/2022,06:48:16,0.000,0.0,0.0,0.0
02/03/2022,06:49:16,0.000,0.0,0.0,0.0
02/03/2022,06:50:08,0.002,0.0,0.0,0.0
02/03/2022,06:51:17,0.000,0.0,0.0,0.0
02/03/2022,06:52:16,0.001,0.0,0.0,0.0
02/03/2022,06:53:16,0.001,0.0,0.0,0.0
02/03/2022,06:54:16,0.001,0.0,0.0,0.0
02/03/2022,06:55:16,0.001,0.0,0.0,0.0
02/03/2022,06:56:17,0.001,0.0,0.0,0.0
02/03/2022,06:57:17,0.001,0.0,0.0,0.0
02/03/2022,06:58:17,0.000,0.0,0.0,0.0
02/03/2022,06:59:16,0.001,0.0,0.0,0.0
02/03/2022,07:00:17,0.002,0.0,0.0,0.0
02/03/2022,07:01:17,0.002,0.0,0.0,0.0
02/03/2022,07:02:17,0.001,0.0,0.0,0.0
02/03/2022,07:03:17,0.001,0.0,0.0,0.0
02/03/2022,07:04:17,0.001,0.0,0.0,0.0
02/03/2022,07:05:25,0.001,0.0,0.0,0.0
02/03/2022,07:06:17,0.003,0.0,0.0,0.0
02/03/2022,07:07:16,0.002,0.0,0.0,0.0
02/03/2022,07:08:25,0.002,0.0,0.0,0.0
02/03/2022,07:09:15,0.001,0.0,0.0,0.0
02/03/2022,07:10:17,0.002,0.0,0.0,0.0
02/03/2022,07:11:16,0.001,0.0,0.0,0.0
02/03/2022,07:12:16,0.002,0.0,0.0,0.0
02/03/2022,07:13:16,0.002,0.0,0.0,0.0
02/03/2022,07:14:16,0.003,0.0,0.0,0.0
02/03/2022,07:15:17,0.002,0.0,0.0,0.0
02/03/2022,07:16:17,0.003,0.0,0.0,0.0
02/03/2022,07:17:16,0.001,0.0,0.0,0.0
02/03/2022,07:18:16,0.003,0.0,0.0,0.0
02/03/2022,07:19:16,0.004,0.0,0.0,0.0
02/03/2022,07:20:17,0.003,0.0,0.0,0.0
02/03/2022,07:21:17,0.003,0.0,0.0,0.0
02/03/2022,07:22:17,0.003,0.0,0.0,0.0
02/03/2022,07:23:17,0.004,0.0,0.0,0.0
02/03/2022,07:24:17,0.004,0.0,0.0,0.0
02/03/2022,07:25:17,0.004,0.0,0.0,0.0
02/03/2022,07:26:25,0.004,0.0,0.0,0.0
02/03/2022,07:27:16,0.004,0.0,0.0,0.0
02/03/2022,07:28:16,0.005,0.0,0.0,0.0
02/03/2022,07:29:16,0.005,0.0,0.0,0.0
02/03/2022,07:30:17,0.006,0.0,0.0,0.0
02/03/2022,07:31:17,0.006,0.0,0.0,0.0
02/03/2022,07:32:25,0.006,0.0,0.0,0.0
02/03/2022,07:33:17,0.006,0.0,0.0,0.0
02/03/2022,07:34:16,0.006,0.0,0.0,0.0
02/03/2022,07:35:18,0.005,0.0,0.0,0.0
02/03/2022,07:36:16,0.004,0.0,0.0,0.0
02/03/2022,07:37:16,0.005,0.0,0.0,0.0
02/03/2022,07:38:17,0.005,0.0,0.0,0.0
02/03/2022,07:39:17,0.004,0.0,0.0,0.0
02/03/2022,07:40:17,0.006,0.0,0.0,0.0
02/03/2022,07:41:16,0.005,0.0,0.0,0.0
02/03/2022,07:42:16,0.006,0.0,0.0,0.0
02/03/2022,07:43:17,0.005,0.0,0.0,0.0
02/03/2022,07:44:17,0.007,0.0,0.0,0.0
02/03/2022,07:45:17,0.007,0.0,0.0,0.0
02/03/2022,07:46:17,0.007,0.0,0.0,0.0
02/03/2022,07:47:17,0.007,0.0,0.001,0.001
02/03/2022,07:48:16,0.007,0.0,0.001,0.0
02/03/2022,07:49:17,0.007,0.0,0.001,0.0
02/03/2022,07:50:25,0.007,0.0,0.001,0.0
02/03/2022,07:51:17,0.008,0.0,0.001,0.0
02/03/2022,07:52:17,0.008,0.0,0.001,0.0
02/03/2022,07:53:17,0.008,0.0,0.001,0.0
02/03/2022,07:54:17,0.008,0.0,0.001,0.0
02/03/2022,07:55:16,0.008,0.0,0.002,0.001
02/03/2022,07:56:17,0.009,0.0,0.002,0.0
02/03/2022,07:57:17,0.009,0.0,0.002,0.0
02/03/2022,07:58:17,0.009,0.0,0.002,0.0
02/03/2022,07:59:16,0.009,0.0,0.002,0.0
02/03/2022,08:00:25,0.009,0.0,0.002,0.0
02/03/2022,08:01:16,0.010,0.0,0.002,0.0
02/03/2022,08:02:17,0.011,0.0,0.003,0.001
02/03/2022,08:03:17,0.012,0.0,0.003,0.0
02/03/2022,08:04:17,0.012,0.0,0.003,0.0
02/03/2022,08:05:17,0.011,0.0,0.003,0.0
02/03/2022,08:06:16,0.010,0.0,0.003,0.0
02/03/2022,08:07:16,0.011,0.0,0.004,0.001
02/03/2022,08:08:16,0.012,0.0,0.004,0.0
02/03/2022,08:09:17,0.012,0.0,0.004,0.0
02/03/2022,08:10:17,0.012,0.0,0.004,0.0
02/03/2022,08:11:17,0.012,0.0,0.004,0.0
02/03/2022,08:12:16,0.012,0.0,0.005,0.001
02/03/2022,08:13:17,0.012,0.0,0.005,0.0
02/03/2022,08:14:17,0.013,0.0,0.005,0.0
02/03/2022,08:15:16,0.013,0.0,0.005,0.0
02/03/2022,08:16:16,0.013,0.0,0.005,0.0
02/03/2022,08:17:17,0.012,0.0,0.006,0.001
02/03/2022,08:18:16,0.012,0.0,0.006,0.0
02/03/2022,08:19:17,0.013,0.0,0.006,0.0
02/03/2022,08:20:17,0.013,0.0,0.006,0.0
02/03/2022,08:21:25,0.013,0.0,0.006,0.0
02/03/2022,08:22:16,0.014,0.0,0.007,0.001
02/03/2022,08:23:16,0.014,0.0,0.007,0.0
02/03/2022,08:24:25,0.015,0.0,0.007,0.0
02/03/2022,08:25:17,0.015,0.0,0.007,0.0
02/03/2022,08:26:17,0.014,0.0,0.008,0.001
02/03/2022,08:27:16,0.016,0.0,0.008,0.0
02/03/2022,08:28:16,0.017,0.0,0.008,0.0
02/03/2022,08:29:16,0.017,0.0,0.008,0.0
02/03/2022,08:30:17,0.017,0.0,0.009,0.001
02/03/2022,08:31:17,0.018,0.0,0.009,0.0
02/03/2022,08:32:17,0.017,0.0,0.009,0.0
02/03/2022,08:33:16,0.017,0.0,0.01,0.001
02/03/2022,08:34:17,0.017,0.0,0.01,0.0
02/03/2022,08:35:17,0.018,0.0,0.01,0.0
02/03/2022,08:36:17,0.017,0.0,0.01,0.0
02/03/2022,08:37:16,0.018,0.0,0.011,0.001
02/03/2022,08:38:17,0.018,0.0,0.011,0.0
02/03/2022,08:40:17,0.019,0.0,0.012,0.001
02/03/2022,08:41:17,0.020,0.0,0.012,0.0
02/03/2022,08:42:17,0.020,0.0,0.012,0.0
02/03/2022,08:43:16,0.022,0.0,0.013,0.001
02/03/2022,08:44:17,0.022,0.0,0.013,0.0
02/03/2022,08:45:25,0.021,0.0,0.013,0.0
02/03/2022,08:46:16,0.023,0.0,0.014,0.001
02/03/2022,08:47:18,0.024,0.0,0.014,0.0
02/03/2022,08:48:25,0.021,0.0,0.015,0.001
02/03/2022,08:49:17,0.022,0.0,0.015,0.0
02/03/2022,08:50:17,0.026,0.0,0.015,0.0
02/03/2022,08:51:16,0.025,0.0,0.016,0.001
02/03/2022,08:52:17,0.027,0.0,0.016,0.0
02/03/2022,08:53:17,0.026,0.0,0.017,0.001
02/03/2022,08:54:16,0.024,0.0,0.017,0.0
02/03/2022,08:55:16,0.027,0.0,0.017,0.0
02/03/2022,08:56:17,0.027,0.0,0.018,0.001
02/03/2022,08:57:17,0.025,0.0,0.018,0.0
02/03/2022,08:58:17,0.027,0.0,0.019,0.001
02/03/2022,08:59:17,0.028,0.0,0.019,0.0
02/03/2022,09:00:17,0.031,0.0,0.02,0.001
02/03/2022,09:01:17,0.029,0.0,0.02,0.0
02/03/2022,09:02:17,0.030,0.0,0.021,0.001
02/03/2022,09:03:16,0.028,0.0,0.021,0.0
02/03/2022,09:04:18,0.030,0.0,0.022,0.001
02/03/2022,09:05:17,0.031,0.0,0.022,0.0
02/03/2022,09:06:25,0.031,0.0,0.023,0.001
02/03/2022,09:07:17,0.030,0.0,0.023,0.0
02/03/2022,09:08:16,0.032,0.0,0.024,0.001
02/03/2022,09:09:16,0.033,0.0,0.024,0.0
02/03/2022,09:10:17,0.033,0.0,0.025,0.001
02/03/2022,09:11:17,0.033,0.0,0.025,0.0
02/03/2022,09:12:16,0.033,0.0,0.026,0.001
02/03/2022,09:13:16,0.034,0.0,0.026,0.0
02/03/2022,09:14:17,0.034,0.0,0.027,0.001
02/03/2022,09:15:17,0.037,0.0,0.028,0.001
02/03/2022,09:16:17,0.036,0.0,0.028,0.0
02/03/2022,09:17:16,0.037,0.0,0.029,0.001
02/03/2022,09:18:16,0.040,0.0,0.029,0.0
02/03/2022,09:19:16,0.039,0.0,0.03,0.001
02/03/2022,09:20:17,0.037,0.0,0.031,0.001
02/03/2022,09:21:17,0.038,0.0,0.031,0.0
02/03/2022,09:22:17,0.045,0.0,0.032,0.001
02/03/2022,09:23:16,0.048,0.0,0.033,0.001
02/03/2022,09:24:16,0.050,0.0,0.034,0.001
02/03/2022,09:25:16,0.047,0.0,0.034,0.0
02/03/2022,09:26:17,0.050,0.0,0.035,0.001
02/03/2022,09:27:17,0.051,0.0,0.036,0.001
02/03/2022,09:28:17,0.053,0.0,0.037,0.001
02/03/2022,09:29:16,0.053,0.0,0.038,0.001
02/03/2022,09:30:25,0.054,0.0,0.039,0.001
02/03/2022,09:31:16,0.049,0.0,0.04,0.001
02/03/2022,09:32:16,0.054,0.0,0.04,0.0
02/03/2022,09:33:17,0.054,0.0,0.041,0.001
02/03/2022,09:34:17,0.056,0.0,0.042,0.001
02/03/2022,09:35:17,0.061,0.0,0.043,0.001
02/03/2022,09:36:17,0.062,0.0,0.044,0.001
02/03/2022,09:37:29,0.064,0.0,0.046,0.002
02/03/2022,09:39:17,0.067,0.0,0.048,0.002
02/03/2022,09:40:17,0.063,0.0,0.049,0.001
02/03/2022,09:41:25,0.068,0.0,0.05,0.001
02/03/2022,09:42:17,0.070,0.0,0.051,0.001
02/03/2022,09:43:17,0.071,0.0,0.052,0.001
02/03/2022,09:44:17,0.081,0.0,0.053,0.001
02/03/2022,09:45:17,0.084,0.0,0.055,0.002
02/03/2022,09:46:16,0.077,0.0,0.056,0.001
02/03/2022,09:47:17,0.075,0.0,0.057,0.001
02/03/2022,09:48:17,0.084,0.0,0.059,0.002
02/03/2022,09:49:17,0.087,0.0,0.06,0.001
02/03/2022,09:50:16,0.087,0.0,0.061,0.001
02/03/2022,09:51:25,0.103,0.0,0.063,0.002
02/03/2022,09:52:18,0.100,0.0,0.065,0.002
02/03/2022,09:53:17,0.105,0.0,0.066,0.001
02/03/2022,09:54:17,0.111,0.0,0.068,0.002
02/03/2022,09:55:17,0.101,0.0,0.07,0.002
02/03/2022,09:56:17,0.104,0.0,0.072,0.002
02/03/2022,09:57:27,0.108,0.0,0.074,0.002
02/03/2022,09:59:25,0.108,0.0,0.077,0.003
02/03/2022,10:00:17,0.105,0.0,0.079,0.002
02/03/2022,10:01:17,0.099,0.0,0.081,0.002
02/03/2022,10:02:17,0.096,0.0,0.082,0.001
02/03/2022,10:03:17,0.097,0.0,0.084,0.002
02/03/2022,10:04:17,0.093,0.0,0.085,0.001
02/03/2022,10:05:25,0.092,0.0,0.087,0.002
02/03/2022,10:06:16,0.101,0.0,0.088,0.001
02/03/2022,10:07:17,0.110,0.0,0.09,0.002
02/03/2022,10:08:17,0.127,0.0,0.092,0.002
02/03/2022,10:09:17,0.126,0.0,0.094,0.002
02/03/2022,10:10:17,0.123,0.0,0.096,0.002
02/03/2022,10:11:16,0.110,0.0,0.098,0.002
02/03/2022,10:12:16,0.109,0.0,0.1,0.002
02/03/2022,10:13:17,0.119,0.0,0.102,0.002
02/03/2022,10:14:33,0.131,0.0,0.105,0.003
02/03/2022,10:16:18,0.123,0.0,0.108,0.003
02/03/2022,10:17:17,0.125,0.0,0.11,0.002
02/03/2022,10:18:16,0.135,0.0,0.113,0.003
02/03/2022,10:19:17,0.137,0.0,0.115,0.002